Location: Izdebno
(52.6670°N, 16.2170°E)
Time: 05:28:56
(UTC+02:00)

A-11 Canister half - Pass Details

Date: 15 February 2023
Orbit: 1526 x 1682 km, 47.3° (Epoch: 25 March)

Event Time Altitude Azimuth Distance (km) Brightness Sun altitude
Rises 01:33:33 0° 201° (SSW) 4,713 - -46.7°
Reaches altitude 10° 01:37:15 10° 190° (S) 3,715 - -46.5°
Maximum altitude 01:44:31 26° 138° (SE) 2,635 - -45.9°
Exits shadow 01:48:04 21° 106° (ESE) 2,927 10.5 -45.5°
Drops below altitude 10° 01:51:45 10° 86° (E) 3,697 11.3 -45.2°
Sets 01:55:23 0° 75° (ENE) 4,686 12.1 -44.9°
